Temp
-12 -12 -12 -13 -13 -13 -13 -13 -13 -13 -13 -13 -14 -14 -14 -14 -14 -14 -14 -14 -14 -14 -14 -15 -14 -14 -14 -14 -14 -15 -15 -15 -16 -17 -17 -17 -18 -19
-12 -12 -13 -13 -13 -13 -13 -13 -13 -14 -14 -14 -14 -14 -14 -14 -15 -14 -14 -14 -15 -15 -15 -15 -15 -14 -15 -15 -15 -15 -16 -17 -17 -18 -18 -19 -19 -19
-13 -13 -13 -13 -13 -13 -13 -13 -14 -14 -14 -14 -14 -14 -15 -15 -15 -14 -15 -15 -15 -15 -15 -15 -15 -15 -15 -15 -15 -16 -17 -18 -18 -18 -19 -19 -20 -19
-13 -13 -13 -13 -13 -14 -14 -14 -14 -14 -14 -14 -15 -15 -15 -15 -15 -15 -15 -15 -15 -15 -15 -15 -15 -15 -15 -16 -16 -17 -18 -18 -19 -19 -19 -20 -20 -20
-14 -14 -14 -14 -14 -14 -14 -14 -14 -14 -14 -14 -15 -15 -15 -15 -15 -15 -15 -15 -15 -15 -15 -15 -15 -15 -16 -17 -18 -19 -18 -19 -19 -20 -20 -20 -20 -21
-14 -14 -14 -14 -14 -14 -14 -14 -14 -15 -15 -15 -15 -15 -15 -15 -15 -15 -16 -15 -15 -15 -15 -15 -15 -16 -17 -18 -18 -18 -19 -19 -20 -20 -20 -20 -21 -21
-14 -14 -14 -14 -14 -15 -15 -16 -15 -15 -15 -15 -15 -15 -15 -16 -16 -16 -16 -15 -15 -15 -15 -15 -16 -17 -18 -18 -18 -19 -19 -20 -20 -20 -20 -21 -21 -21
-14 -14 -14 -15 -15 -15 -15 -15 -15 -15 -15 -15 -15 -15 -16 -16 -16 -16 -16 -16 -15 -15 -16 -17 -18 -18 -18 -18 -19 -20 -20 -20 -20 -21 -21 -21 -21 -22
-14 -14 -15 -15 -15 -15 -15 -15 -15 -15 -15 -15 -15 -16 -16 -16 -16 -16 -16 -16 -16 -16 -17 -17 -18 -18 -19 -20 -20 -20 -20 -21 -21 -21 -21 -22 -22 -23
-14 -14 -14 -14 -15 -15 -15 -15 -16 -15 -15 -15 -16 -16 -16 -16 -16 -16 -16 -16 -16 -18 -18 -18 -18 -19 -20 -20 -20 -21 -21 -21 -21 -21 -22 -22 -23 -23
-14 -14 -14 -14 -14 -15 -15 -15 -15 -15 -15 -16 -16 -16 -16 -16 -16 -16 -16 -17 -18 -18 -18 -19 -19 -20 -20 -20 -21 -21 -21 -21 -21 -22 -23 -23 -23 -24
-14 -14 -14 -14 -14 -14 -15 -15 -16 -16 -16 -16 -16 -16 -16 -16 -16 -17 -17 -18 -19 -18 -19 -19 -20 -20 -21 -21 -21 -21 -21 -21 -22 -23 -23 -24 -24 -24
-14 -14 -14 -14 -14 -15 -15 -15 -16 -17 -16 -16 -16 -16 -16 -16 -17 -17 -18 -19 -19 -19 -19 -20 -21 -21 -21 -21 -21 -21 -21 -22 -23 -24 -24 -25 -25 -25
-14 -14 -14 -14 -15 -15 -15 -16 -17 -17 -16 -16 -16 -16 -16 -17 -18 -19 -18 -19 -19 -20 -20 -20 -21 -21 -21 -21 -21 -21 -22 -23 -23 -24 -25 -25 -25 -25
-14 -14 -15 -15 -16 -16 -17 -17 -17 -16 -16 -16 -16 -17 -17 -18 -18 -18 -18 -19 -20 -20 -20 -21 -21 -21 -21 -21 -21 -22 -23 -24 -24 -25 -25 -25 -25 -25
-14 -15 -16 -16 -17 -18 -17 -17 -17 -16 -17 -16 -17 -17 -17 -18 -18 -19 -19 -20 -20 -20 -21 -21 -21 -21 -21 -22 -22 -23 -23 -24 -24 -25 -25 -26 -26 -26
-15 -15 -17 -18 -17 -17 -18 -18 -17 -17 -16 -17 -17 -18 -18 -19 -19 -19 -20 -20 -20 -21 -21 -21 -21 -21 -22 -23 -23 -23 -24 -24 -25 -25 -25 -26 -27 -27
-16 -16 -16 -17 -18 -18 -17 -16 -16 -16 -17 -17 -18 -19 -19 -20 -19 -20 -20 -20 -21 -21 -21 -21 -21 -22 -23 -23 -23 -23 -24 -25 -25 -25 -25 -26 -27 -28
-16 -16 -17 -18 -16 -16 -16 -17 -17 -17 -18 -19 -19 -19 -19 -20 -20 -20 -20 -20 -21 -21 -21 -21 -22 -23 -23 -24 -24 -24 -25 -25 -25 -25 -26 -26 -28 -29
-17 -17 -17 -17 -17 -17 -17 -17 -17 -19 -19 -19 -19 -19 -20 -20 -20 -20 -21 -21 -21 -21 -22 -22 -23 -23 -23 -24 -25 -25 -25 -25 -25 -26 -26 -27 -28 -30
-17 -17 -17 -17 -17 -17 -17 -18 -18 -19 -19 -19 -20 -20 -20 -21 -21 -21 -21 -21 -21 -22 -22 -23 -23 -23 -23 -24 -24 -25 -26 -26 -26 -26 -26 -27 -28 -30
-17 -17 -17 -17 -18 -18 -18 -19 -19 -19 -20 -20 -20 -20 -21 -21 -21 -21 -21 -22 -22 -23 -22 -23 -23 -23 -24 -24 -24 -25 -26 -26 -27 -27 -27 -28 -29 -29
-17 -18 -18 -19 -19 -19 -19 -19 -20 -20 -20 -20 -21 -21 -21 -21 -21 -21 -22 -22 -22 -23 -23 -23 -23 -23 -24 -24 -24 -25 -26 -26 -27 -28 -29 -30 -30 -30
Height
5815 5820 5823 5825 5828 5830 5830 5832 5833 5833 5834 5834 5834 5833 5832 5830 5828 5825 5821 5818 5815 5812 5808 5804 5800 5794 5786 5779 5772 5764 5756 5747 5738 5729 5722 5714 5705 5697
5809 5814 5817 5819 5821 5823 5825 5827 5828 5828 5828 5829 5828 5827 5826 5824 5822 5819 5815 5811 5808 5805 5801 5796 5791 5785 5778 5770 5762 5754 5746 5737 5728 5720 5711 5703 5694 5686
5804 5807 5810 5812 5814 5816 5818 5820 5821 5823 5822 5823 5822 5820 5819 5817 5815 5812 5808 5805 5802 5798 5794 5789 5782 5775 5768 5760 5752 5743 5735 5728 5719 5709 5701 5692 5684 5674
5796 5799 5802 5805 5807 5810 5811 5813 5815 5816 5817 5816 5814 5814 5812 5810 5808 5804 5801 5798 5795 5790 5785 5779 5773 5766 5758 5749 5741 5733 5726 5718 5709 5700 5689 5683 5672 5661
5788 5791 5794 5797 5800 5802 5804 5806 5808 5810 5810 5810 5809 5807 5805 5802 5800 5797 5794 5791 5787 5782 5776 5771 5764 5756 5748 5740 5731 5723 5716 5707 5700 5690 5680 5669 5658 5647
5780 5783 5786 5790 5793 5795 5797 5800 5802 5802 5803 5803 5802 5800 5798 5794 5793 5790 5787 5783 5778 5773 5767 5762 5754 5746 5738 5729 5721 5714 5705 5697 5688 5679 5667 5656 5646 5636
5772 5775 5778 5781 5784 5788 5791 5792 5794 5795 5796 5795 5794 5793 5790 5788 5786 5783 5779 5775 5770 5764 5758 5751 5743 5735 5727 5719 5712 5704 5695 5687 5677 5667 5655 5644 5634 5623
5763 5767 5769 5772 5776 5779 5782 5784 5786 5786 5786 5786 5786 5784 5782 5779 5777 5774 5770 5765 5761 5755 5749 5742 5733 5724 5717 5710 5702 5693 5685 5676 5666 5655 5645 5633 5623 5612
5755 5758 5762 5765 5768 5772 5775 5776 5777 5777 5778 5778 5778 5776 5775 5772 5769 5765 5761 5756 5751 5744 5737 5729 5723 5716 5708 5699 5692 5683 5674 5665 5654 5643 5633 5622 5613 5601
5746 5749 5753 5756 5760 5763 5766 5769 5769 5770 5770 5770 5770 5768 5766 5763 5759 5756 5752 5747 5740 5734 5726 5721 5714 5706 5698 5690 5682 5673 5663 5652 5641 5630 5621 5612 5602 5589
5738 5742 5745 5748 5751 5755 5757 5759 5761 5761 5762 5763 5762 5761 5759 5755 5751 5748 5743 5736 5730 5723 5717 5711 5703 5696 5689 5681 5671 5662 5652 5641 5629 5619 5610 5600 5592 5579
5729 5732 5735 5739 5743 5746 5749 5753 5752 5752 5754 5754 5753 5752 5749 5745 5742 5737 5731 5725 5719 5714 5708 5701 5694 5687 5679 5670 5661 5651 5641 5630 5619 5609 5598 5588 5578 5569
5720 5723 5726 5730 5734 5738 5743 5744 5745 5745 5745 5745 5744 5741 5739 5736 5732 5727 5721 5716 5711 5705 5699 5691 5685 5678 5669 5659 5650 5640 5631 5621 5608 5597 5585 5575 5564 5553
5713 5716 5720 5722 5728 5732 5735 5737 5738 5739 5738 5737 5734 5733 5730 5726 5721 5717 5712 5708 5702 5696 5688 5682 5675 5668 5659 5649 5640 5629 5618 5611 5601 5589 5578 5566 5553 5540
5703 5707 5711 5715 5722 5726 5729 5731 5731 5730 5730 5727 5726 5723 5719 5715 5711 5708 5704 5698 5692 5687 5680 5672 5665 5657 5650 5641 5630 5621 5612 5598 5589 5582 5569 5554 5544 5533
5695 5699 5704 5708 5713 5718 5721 5721 5722 5721 5720 5717 5715 5712 5710 5706 5703 5699 5694 5689 5683 5677 5671 5663 5656 5647 5639 5630 5621 5612 5603 5595 5584 5573 5562 5542 5527 5517
5692 5695 5697 5702 5707 5709 5710 5713 5713 5710 5709 5707 5705 5704 5701 5697 5693 5688 5684 5679 5674 5667 5661 5654 5646 5636 5628 5619 5612 5603 5594 5582 5572 5562 5551 5535 5515 5506
5687 5690 5694 5698 5699 5700 5702 5703 5702 5700 5699 5699 5697 5694 5691 5687 5682 5679 5674 5669 5664 5657 5651 5644 5635 5627 5617 5609 5601 5592 5582 5572 5561 5550 5537 5525 5509 5495
5680 5683 5687 5690 5692 5692 5693 5692 5692 5691 5690 5688 5686 5684 5680 5676 5673 5669 5665 5659 5653 5648 5641 5634 5624 5616 5606 5596 5586 5580 5573 5561 5552 5541 5528 5513 5499 5489
5673 5677 5679 5680 5681 5682 5682 5682 5682 5683 5681 5679 5676 5674 5671 5667 5664 5660 5655 5649 5644 5637 5631 5622 5615 5607 5598 5589 5577 5563 5555 5549 5540 5531 5520 5507 5491 5479
5665 5667 5669 5671 5672 5673 5673 5674 5674 5672 5671 5669 5667 5664 5661 5658 5655 5650 5646 5641 5635 5627 5620 5614 5606 5598 5589 5580 5569 5557 5542 5530 5521 5515 5507 5497 5487 5478
5656 5658 5660 5662 5663 5663 5664 5663 5662 5661 5660 5659 5658 5654 5651 5648 5645 5641 5638 5631 5625 5617 5611 5604 5596 5588 5580 5570 5559 5549 5537 5524 5506 5494 5488 5480 5475 5472
5647 5648 5650 5651 5652 5652 5653 5653 5653 5652 5651 5650 5648 5645 5642 5639 5636 5632 5627 5621 5614 5608 5602 5594 5585 5578 5570 5559 5548 5538 5526 5515 5505 5492 5476 5470 5466 5461
Wind_Speed
37 36 35 35 35 34 34 33 32 30 29 30 29 30 31 32 36 41 40 40 37 35 37 38 44 48 53 55 57 59 61 62 61 61 62 63 63 61
38 37 37 37 37 37 36 34 34 32 31 30 30 32 32 35 39 39 39 36 35 37 40 44 49 52 55 55 59 61 62 61 60 61 62 63 61 59
39 38 38 38 39 38 36 36 35 34 33 31 33 32 33 37 38 39 35 35 38 39 43 48 50 54 55 58 61 63 61 59 59 59 61 61 64 67
40 39 39 39 39 39 38 36 35 36 34 34 32 32 35 35 42 37 35 38 40 42 46 50 54 55 58 60 63 62 58 58 56 60 61 65 68 68
40 40 40 41 41 40 40 37 37 36 36 35 34 36 36 40 38 35 35 38 42 44 49 53 55 59 61 62 60 56 58 58 59 60 65 69 68 66
42 42 41 42 43 43 40 37 37 37 36 35 37 43 40 33 33 34 36 41 43 47 50 53 58 61 60 59 59 60 59 59 61 65 69 69 68 68
43 44 42 44 45 43 39 38 38 36 37 37 40 41 34 32 34 37 40 44 47 49 52 57 60 59 58 57 61 59 60 63 66 68 68 67 67 64
42 44 45 46 45 43 40 36 36 40 40 41 39 33 31 33 36 39 43 46 48 51 56 59 57 57 61 61 58 58 61 64 67 66 67 65 62 61
43 47 47 46 46 40 38 37 41 43 37 41 34 31 32 35 38 42 44 46 52 56 57 58 60 60 58 57 58 62 64 66 65 67 66 61 61 65
43 47 45 44 38 37 37 42 43 43 41 36 33 33 35 38 41 43 45 52 55 54 56 57 59 57 56 58 61 63 65 64 68 66 61 60 63 67
42 43 43 39 40 39 42 44 46 38 34 34 32 34 38 40 42 44 50 54 53 53 56 56 57 56 59 61 62 62 62 66 64 59 60 63 66 69
40 45 43 43 54 44 37 42 37 35 32 31 34 35 38 39 41 49 52 51 51 53 54 57 57 56 61 61 62 61 64 65 60 60 63 66 69 71
45 45 50 54 41 33 39 42 34 30 29 33 35 37 38 40 47 51 50 51 54 54 58 55 56 59 60 62 63 63 64 60 60 61 65 68 72 74
38 37 46 35 36 37 40 33 24 28 31 35 39 37 41 48 49 48 49 51 53 55 54 53 56 58 60 62 62 62 58 58 59 62 65 70 74 76
41 37 33 31 35 36 27 25 28 30 34 34 36 43 50 52 50 50 51 52 52 54 53 53 54 58 61 60 60 55 55 59 61 64 68 73 73 74
40 39 40 36 31 25 22 26 29 32 34 38 43 47 52 53 51 49 51 54 53 52 52 53 56 60 61 59 54 55 58 60 63 67 68 74 76 75
42 44 36 30 29 24 23 26 32 36 37 42 48 51 51 49 47 50 54 54 50 51 52 54 59 59 58 53 55 58 61 64 66 67 69 72 73 70
28 27 22 21 22 26 32 34 36 38 43 47 46 47 45 46 46 50 50 48 51 51 53 56 58 55 53 55 58 61 64 65 67 69 71 72 68 60
33 29 24 24 29 33 36 36 40 43 41 43 43 48 49 45 46 45 47 49 50 51 53 56 52 51 55 59 63 63 63 66 67 68 70 70 63 50
24 26 30 34 36 37 37 40 42 40 45 46 45 43 43 43 44 45 46 46 48 51 51 48 48 52 56 59 62 67 68 68 68 67 68 66 54 42
31 33 35 36 37 39 42 44 43 44 44 40 40 43 44 41 43 44 45 49 49 47 44 47 50 53 56 60 63 67 70 72 72 70 69 63 46 32
36 36 37 39 40 41 41 41 41 39 36 38 42 43 42 41 42 44 48 47 43 41 45 47 49 53 58 62 65 67 68 70 73 72 68 56 38 30
39 39 40 38 37 36 36 37 35 34 36 39 40 41 39 39 42 45 44 39 39 40 42 47 51 55 59 64 67 69 69 69 68 64 55 43 38 39
Wind_Direction
239 241 243 246 249 253 255 259 263 267 272 276 283 289 291 293 300 304 306 304 307 310 311 316 319 319 318 317 318 317 316 314 313 314 319 318 315 314
238 242 245 247 251 254 257 261 265 268 272 276 284 286 287 295 300 305 306 306 306 308 312 314 316 316 317 315 316 316 313 312 317 319 319 321 321 319
239 242 245 248 250 254 258 260 264 269 272 277 281 283 287 293 297 302 304 303 305 310 313 313 314 315 314 314 313 312 313 316 318 320 321 322 322 320
237 239 243 247 250 254 257 260 264 267 271 276 277 282 294 294 300 297 297 301 306 309 311 311 314 315 313 311 311 313 315 318 318 320 323 322 320 320
236 238 242 247 249 252 255 258 263 268 272 275 279 287 288 293 293 293 297 301 306 309 309 312 314 312 310 312 313 314 318 321 319 319 321 321 321 320
236 238 242 246 249 252 255 260 265 269 271 274 283 288 289 288 290 294 298 301 304 308 310 313 312 309 312 313 312 316 317 318 321 320 321 322 321 319
237 241 243 247 249 251 254 258 264 267 273 270 283 285 283 287 290 293 300 302 306 308 308 309 311 313 313 312 314 316 318 320 320 320 320 321 320 320
238 242 244 245 250 249 255 257 260 262 265 278 283 279 279 285 290 296 298 304 305 306 306 310 311 310 314 317 315 316 320 319 319 321 322 321 321 320
239 242 245 246 251 256 254 255 258 263 275 277 271 276 282 288 293 296 300 303 304 305 310 309 312 316 317 315 315 317 318 319 320 321 321 321 321 321
239 245 246 253 251 254 256 259 259 261 270 269 266 273 284 289 293 298 300 303 305 310 308 313 316 316 316 315 314 316 319 320 322 322 321 322 322 322
243 247 251 253 250 251 253 260 258 256 262 263 268 280 284 292 296 296 301 304 308 309 312 316 314 314 315 315 316 318 320 322 322 320 321 323 323 324
246 251 252 257 255 248 243 245 252 252 254 264 273 281 288 291 295 301 302 305 310 313 314 316 314 313 314 316 318 319 321 322 320 321 323 322 323 325
258 255 257 254 260 237 240 246 244 250 262 269 278 280 287 294 299 303 304 309 315 314 315 313 312 312 313 317 319 319 320 320 322 323 323 323 323 323
241 244 253 242 228 230 232 235 252 264 271 279 282 284 295 293 301 305 308 311 313 311 311 311 310 312 315 317 319 319 320 321 323 322 322 322 321 322
236 228 217 210 220 229 235 246 258 266 273 285 285 283 283 292 300 301 307 309 310 310 309 308 311 314 316 317 317 319 319 321 322 323 322 320 321 323
211 207 204 209 218 225 247 260 267 274 274 275 282 287 289 292 294 300 307 307 308 308 309 310 312 316 316 315 318 318 319 321 321 323 323 321 322 325
210 211 210 218 231 241 254 263 266 270 277 279 282 288 289 291 297 304 304 304 305 307 310 309 313 314 315 317 319 320 320 321 323 323 324 322 323 325
220 230 239 243 259 261 259 261 269 271 273 277 281 289 290 300 301 300 303 303 305 309 308 312 314 315 317 318 318 320 321 322 323 323 323 324 324 321
223 239 243 245 249 253 257 264 268 273 274 282 283 286 293 295 298 302 302 305 307 306 309 313 315 318 320 319 319 320 321 322 323 323 324 325 324 318
239 239 241 245 252 258 264 268 271 266 276 282 287 288 291 294 298 300 305 305 304 307 311 313 317 319 318 319 320 320 322 322 323 324 325 326 325 314
233 238 244 251 257 263 266 269 271 273 277 281 286 287 291 292 294 302 302 303 306 309 313 317 319 320 323 324 324 322 321 321 323 324 327 327 326 314
241 246 252 256 262 266 269 272 272 274 278 286 286 287 288 292 297 299 302 305 308 312 316 320 323 326 327 328 326 324 323 322 323 325 327 328 326 322
248 254 260 266 268 269 270 273 270 276 286 286 283 287 291 294 296 300 304 305 311 317 322 326 327 327 328 328 326 324 323 323 324 325 323 324 322 324